date,time,DOY,Ta_1_1_1,RH_1_1_1,LWin_1_1_1,LWout_1_1_1,SWin_1_1_1,SWout_1_1_1,PPFD_1_1_1,SWC_1_1_1,Ts_1_1_1
[yyyy-mm-dd],[HH:MM],[ddd.ddd],[K],[%],[W+1m-2],[W+1m-2],[W+1m-2],[W+1m-2],[µmol+1m-2s-1],[m+3m-3],[K]
2014-05-26,00:30,146.020,291.59466666666668,51.266333333333321,-9999.0,-9999.0,-0.36333333333333340,-2.6319999999999997,6.33333333333333318E-003,0.32000000000000012,286.33566666666673
2014-05-26,01:00,146.041,291.53366666666676,53.063333333333340,-9999.0,-9999.0,-0.57333333333333336,-2.7473333333333332,7.66666666666666798E-003,0.32000000000000012,286.23566666666665
2014-05-26,01:30,146.062,291.54066666666671,54.571666666666665,-9999.0,-9999.0,-0.45300000000000012,-1.9060000000000001,7.66666666666666885E-003,0.32000000000000012,286.14800000000008
2014-05-26,02:00,146.083,291.57666666666671,56.686333333333330,-9999.0,-9999.0,-0.61966666666666670,-1.3586666666666667,7.66666666666666712E-003,0.32000000000000012,286.10633333333334
2014-05-26,02:30,146.104,291.59433333333334,59.679666666666677,-9999.0,-9999.0,-0.47033333333333321,-1.9740000000000004,3.66666666666666660E-003,0.32000000000000012,286.10666666666668
2014-05-26,03:00,146.124,291.46433333333340,62.547999999999995,-9999.0,-9999.0,-0.57399999999999995,-1.9713333333333332,1.06666666666666680E-002,0.32000000000000012,286.10166666666674
2014-05-26,03:30,146.145,291.14533333333344,64.751000000000005,-9999.0,-9999.0,-0.77033333333333331,-1.9233333333333333,8.33333333333333322E-003,0.32000000000000012,286.10000000000008
2014-05-26,04:00,146.166,290.84400000000005,67.068666666666687,-9999.0,-9999.0,-0.89400000000000002,-1.7220000000000000,0.11566666666666668,0.32000000000000012,286.08500000000004
2014-05-26,04:30,146.187,290.50100000000009,68.344333333333324,-9999.0,-9999.0,-0.64066666666666650,0.31933333333333336,3.2050000000000001,0.32000000000000012,286.05766666666676
2014-05-26,05:00,146.208,290.33333333333331,71.626000000000005,-9999.0,-9999.0,0.60766666666666669,8.0566666666666684,19.798666666666666,0.32000000000000012,286.03533333333331
2014-05-26,05:30,146.229,290.34066666666672,74.074666666666658,-9.8400000000000016,-9999.0,3.7263333333333324,33.823000000000000,73.534333333333322,0.32000000000000012,286.02533333333355
2014-05-26,06:00,146.249,290.44166666666672,74.972666666666683,-9999.0,-9999.0,13.729666666666663,102.54433333333333,204.16566666666668,0.32000000000000012,286.04066666666671
2014-05-26,06:30,146.270,291.19800000000004,74.254999999999981,-8.6443750000000001,-9999.0,27.455333333333328,198.72233333333332,378.26166666666660,0.32000000000000012,286.10666666666668
2014-05-26,07:00,146.291,291.63400000000001,75.519333333333321,-8.8323333333333327,-9999.0,26.464666666666666,204.68266666666668,407.52400000000006,0.32000000000000012,286.35800000000000
2014-05-26,07:30,146.312,292.45266666666674,73.562666666666672,-8.3590000000000000,-9999.0,56.989666666666658,421.42033333333330,818.80166666666662,0.32000000000000012,286.66633333333340
2014-05-26,08:00,146.333,293.44166666666678,72.147000000000006,-7.4653571428571439,-9999.0,66.233666666666664,502.30200000000002,994.39033333333305,0.32000000000000012,287.27499999999998
2014-05-26,08:30,146.354,294.40566666666672,69.651333333333341,-7.8603333333333349,-9999.0,77.865333333333353,608.07300000000009,1218.5463333333332,0.32000000000000012,288.20533333333339
2014-05-26,09:00,146.374,295.00500000000011,67.928666666666672,-5.8783333333333339,-9999.0,87.412333333333336,687.83000000000015,1398.5466666666662,0.31866666666666676,288.83666666666676
2014-05-26,09:30,146.395,295.70900000000006,65.707666666666654,-4.5549999999999988,-9999.0,95.672333333333370,761.98200000000008,1557.4733333333338,0.31666666666666676,289.26566666666673
2014-05-26,10:00,146.416,296.58166666666676,61.484999999999999,-2.7006666666666663,-9999.0,104.43466666666664,834.39733333333345,1715.0599999999997,0.30999999999999989,289.91566666666660
2014-05-26,10:30,146.437,297.41133333333335,56.457666666666682,-0.67300000000000004,-9999.0,111.19900000000000,888.14066666666679,1825.0636666666671,0.30999999999999989,290.78399999999993
2014-05-26,11:00,146.458,298.14166666666665,52.371000000000002,-0.51866666666666661,-9999.0,110.34000000000000,897.59733333333327,1876.1396666666667,0.30999999999999989,290.92000000000002
2014-05-26,11:30,146.479,298.36833333333345,50.920666666666669,-0.13733333333333325,-9999.0,113.06266666666667,914.40166666666664,1902.6930000000004,0.30999999999999989,291.14999999999992
2014-05-26,12:00,146.499,298.91266666666667,46.938333333333325,-0.66133333333333344,-9999.0,107.92633333333335,880.71333333333325,1842.8039999999999,0.31066666666666654,291.11100000000005
2014-05-26,12:30,146.520,298.92766666666671,47.094666666666669,-4.6186956521739129,-9999.0,60.435333333333340,505.52633333333324,1059.7853333333335,0.30999999999999989,291.08733333333333
2014-05-26,13:00,146.541,297.48333333333341,54.606999999999999,-8.6383333333333336,-9999.0,27.635333333333335,204.85100000000000,452.13066666666674,0.30999999999999989,290.94800000000009
2014-05-26,13:30,146.562,294.29800000000000,72.630333333333340,-2.2675999999999998,-4.6856521739130441,13.229000000000003,77.909333333333322,188.54600000000002,0.31466666666666676,290.58900000000000
2014-05-26,14:00,146.583,293.10633333333334,79.465333333333305,-6.4536666666666660,-7.5966666666666667,29.045333333333335,243.61400000000000,531.85066666666671,0.32000000000000012,290.24133333333339
2014-05-26,14:30,146.604,294.46466666666669,77.739333333333335,-3.2277777777777779,-9999.0,85.549000000000021,722.96866666666688,1517.4203333333332,0.32433333333333336,290.26700000000000
2014-05-26,15:00,146.624,295.62100000000004,74.941666666666663,-9.0199999999999996,-9999.0,23.924333333333337,213.48766666666663,470.77966666666674,0.33000000000000002,290.72333333333341
2014-05-26,15:30,146.645,294.61266666666671,76.435999999999993,-8.1180000000000003,-8.8039999999999985,21.999999999999996,161.14833333333328,374.71433333333334,0.33000000000000002,290.63666666666671
2014-05-26,16:00,146.666,295.41500000000008,70.368999999999986,-6.1485185185185189,-9.5049999999999990,68.294666666666686,518.72533333333342,1090.2566666666667,0.33000000000000002,290.47033333333343
2014-05-26,16:30,146.687,297.00166666666667,59.487333333333332,-9999.0,-9999.0,37.837000000000003,300.33433333333329,634.22266666666667,0.33000000000000002,290.73233333333343
2014-05-26,17:00,146.708,297.41866666666670,57.267000000000010,-9999.0,-9999.0,21.591000000000001,179.88433333333339,383.87333333333333,0.33000000000000002,290.73766666666671
2014-05-26,17:30,146.729,296.56666666666672,64.385333333333335,-9999.0,-9999.0,24.232000000000003,190.79399999999998,405.73266666666666,0.33000000000000002,290.61100000000005
2014-05-26,18:00,146.749,295.89166666666671,65.768666666666661,-9999.0,-9999.0,14.353666666666667,114.53833333333333,245.48633333333331,0.33000000000000002,290.43733333333336
2014-05-26,18:30,146.770,295.23000000000008,68.981999999999999,-9999.0,-9999.0,10.322333333333335,78.801999999999992,168.50300000000001,0.33000000000000002,290.19500000000005
2014-05-26,19:00,146.791,294.66299999999995,70.953333333333347,-9999.0,-9999.0,4.7720000000000002,35.678000000000004,77.864333333333335,0.33000000000000002,289.93500000000006
2014-05-26,19:30,146.812,294.14133333333336,71.105333333333348,-9999.0,-9999.0,2.0169999999999995,13.400333333333331,31.024000000000004,0.32633333333333342,289.66633333333340
2014-05-26,20:00,146.833,293.45766666666674,73.184666666666672,-9999.0,-9999.0,-0.20899999999999999,-1.0393333333333334,3.6196666666666664,0.32733333333333342,289.38433333333336
2014-05-26,20:30,146.854,293.21500000000003,74.637333333333331,-9999.0,-9999.0,-0.47433333333333333,-3.5399999999999996,9.69999999999999751E-002,0.32466666666666677,289.09166666666675
2014-05-26,21:00,146.874,293.04833333333323,75.710333333333338,-9999.0,-9999.0,-0.69866666666666644,-4.4086666666666678,-3.33333333333333160E-004,0.32000000000000012,288.79800000000000
2014-05-26,21:30,146.895,292.89866666666671,75.210666666666654,-9999.0,-9999.0,-0.20633333333333334,-4.5616666666666656,-1.26666666666666646E-002,0.32133333333333347,288.50533333333340
2014-05-26,22:00,146.916,292.17833333333334,79.630333333333326,-9999.0,-9999.0,-0.70733333333333337,-4.8373333333333326,-1.06666666666666680E-002,0.32000000000000012,288.23500000000001
2014-05-26,22:30,146.937,291.55233333333342,80.643000000000015,-9999.0,-9999.0,-0.47933333333333333,-3.7549999999999999,-5.00000000000000097E-003,0.32000000000000012,288.00666666666672
2014-05-26,23:00,146.958,290.36533333333330,86.444999999999979,-9999.0,-9999.0,-0.49233333333333340,-3.6916666666666655,-1.56666666666666655E-002,0.32000000000000012,287.82600000000002
2014-05-26,23:30,146.979,289.67800000000000,89.082666666666668,-9.8300000000000001,-9999.0,-0.26133333333333336,-3.5989999999999998,-1.03333333333333350E-002,0.32166666666666671,287.68833333333339
2014-05-27,00:00,147.000,288.94999999999999,89.566333333333347,-9.2700000000000014,-9999.0,-0.16533333333333336,-3.3539999999999988,-1.16666666666666672E-002,0.32266666666666677,287.56133333333338
